[[{"header":{"parameterUnit":"m.s-1","parameterCategory":1,"la1":30.2991,"la2":30.254,"lo1":-89.0895,"lo2":-89.0444,"dy":0.0017,"dx":0.0017,"nx":28,"ny":28,"refTime":"2023-08-07T03:00:00:Z","depth":0,"parameterNumber":2,"parameterNumberName":"U-component_of_WINDS"},"data":[0,0,0,0,0,0,0,0,0,0,0,0,0,0,0,0,0,0,0,0,0,0,0,0,0,0,0,0,0,0,0,0,0,0,0,0,0,0,0,0,0,0,0,0,0,0,0,0,0,0,0,0,0,0,0,0,0,0,2.6485,2.6485,0,2.653,2.6531,2.6531,2.6473,2.6471,2.6469,2.6467,2.6515,2.6518,2.6521,0,0,0,0,0,0,0,0,0,0,0,0,0,2.635,2.6353,2.6485,2.6485,2.6486,2.653,2.6531,2.6531,2.6474,2.6471,2.6468,2.6466,2.6514,2.6518,2.6522,0,0,0,0,0,0,0,0,0,0,0,0,0,2.6404,2.6354,2.6485,2.6462,2.6461,2.653,2.6531,2.6531,2.6474,2.6471,2.6468,2.6465,2.6513,2.6517,2.6522,2.6616,0,0,2.6537,2.6539,0,0,0,0,0,0,0,0,2.6401,2.6409,2.6465,2.6464,2.6462,2.6493,2.6501,2.656,2.6475,2.6469,2.6467,2.6463,2.651,2.6515,2.6531,2.6618,2.662,2.6537,2.654,2.6542,2.6544,0,0,0,0,0,0,0,2.6397,2.6406,2.6503,2.6466,2.6464,2.6451,2.6455,2.6512,2.6507,2.6469,2.6465,2.6471,2.6509,2.6526,2.6531,2.6621,2.6537,2.6542,2.6545,2.6546,2.6787,2.6791,0,0,0,0,0,0,2.6396,2.6404,2.6501,2.6504,2.6423,2.6456,2.646,2.6486,2.6506,2.6506,2.6474,2.6469,2.6519,2.6526,2.6533,2.6643,2.6542,2.6547,2.655,2.6784,2.6788,2.6792,0,0,0,0,0,0,2.6393,2.6405,2.6499,2.6453,2.6464,2.6462,2.6491,2.6489,2.6506,2.651,2.6509,2.6492,2.6517,2.6526,2.6595,2.6643,2.6549,2.6554,2.678,2.6785,2.679,2.6864,0,0,0,0,0,0,2.6389,2.6404,2.6439,2.6454,2.6466,2.6561,2.6494,2.6492,2.6514,2.6507,2.6526,2.6527,2.6515,2.6588,2.66,2.6648,2.6557,2.6775,2.6782,2.6788,2.6857,2.6871,2.6883,0,0,0,0,0,2.6385,2.6458,2.6441,2.6453,2.651,2.6563,2.6571,2.6556,2.6518,2.6553,2.6556,2.6526,2.6637,2.6596,2.6609,2.6659,2.6772,2.678,2.6788,2.6851,2.6868,2.6883,0,0,0,0,0,0,2.6449,2.646,2.6441,2.6521,2.6542,2.6554,2.6597,2.6574,2.6606,2.6598,2.6579,2.6584,2.6658,2.6666,2.662,2.6751,2.6699,2.6709,2.6742,2.6759,2.6771,2.6766,2.6561,0,0,0,0,0,2.6472,2.6515,2.6522,2.6592,2.6604,2.6599,2.6622,2.6609,2.663,2.6638,2.6646,2.6668,2.6708,2.6734,2.6771,2.6859,2.6862,2.6901,2.6913,2.6924,2.6933,2.698,2.6996,2.6818,2.6818,2.6817,0,0,2.6521,2.6532,2.656,2.6606,2.662,2.6664,2.6607,2.6656,2.6689,2.6646,2.6711,2.6718,2.6742,2.6821,2.6856,2.683,2.6983,2.6934,2.6942,2.6945,2.6989,2.7006,2.7021,2.6823,2.6822,2.6821,0,0,2.6632,2.6645,2.6705,2.6721,2.6744,2.6741,2.6755,2.6771,2.6774,2.684,2.6808,2.6848,2.6917,2.6935,2.6953,2.7074,2.7047,2.7087,2.7153,2.7199,2.7213,2.7225,2.7267,2.7282,2.7096,2.7096,2.7096,0,2.6689,2.6754,2.6738,2.679,2.6811,2.6775,2.6835,2.6852,2.6887,2.6902,2.6873,2.6959,2.6972,2.7055,2.7084,2.7101,2.7117,2.7083,2.7212,2.7224,2.7236,2.7275,2.7291,2.7101,2.71,2.71,2.7099,0,2.6823,2.6869,2.6915,2.6948,2.6975,2.7031,2.7024,2.7054,2.704,2.704,2.7108,2.7123,2.7162,2.7182,2.7168,2.7263,2.7246,2.7215,2.7161,2.7257,2.7294,2.7309,2.7107,2.7106,2.7104,2.7103,0,0,2.6971,2.6997,2.7014,2.7029,2.7053,2.7089,2.7144,2.7183,2.7207,2.7234,2.7279,2.734,2.7311,2.7332,2.7321,2.7362,2.7455,2.7326,2.7326,2.7348,2.756,2.758,2.7598,2.7439,2.7442,2.7445,2.7557,0,2.708,2.7175,2.7164,2.7254,2.7296,2.7265,2.7313,2.7333,2.7336,2.7373,2.7377,2.7419,2.738,2.7392,2.7431,2.7436,2.7497,2.7428,2.7481,2.7483,2.7472,2.7617,2.7639,2.7744,2.7571,2.7574,2.7576,0,2.7219,2.725,2.7345,2.7363,2.7381,2.7424,2.7458,2.7495,2.7518,2.7517,2.7542,2.7524,2.758,2.7529,2.7606,2.7559,2.758,2.7586,2.759,2.7592,2.7532,2.7621,2.7778,2.7792,2.7598,2.7596,2.7595,0,2.7315,2.7381,2.7446,2.746,2.7484,2.7515,2.7527,2.7547,2.7571,2.7603,2.7618,2.7656,2.7676,2.7706,2.7699,2.7662,2.7778,2.7726,2.7778,2.7778,2.7801,2.7799,2.7961,2.782,2.782,2.782,2.7819,0,2.7436,2.7495,2.7489,2.7529,2.7594,2.7583,2.7648,2.7655,2.7674,2.7715,2.7692,2.7731,2.7721,2.776,2.7756,2.782,2.783,2.7831,2.7828,2.7831,2.783,2.7842,2.7834,2.7824,2.7823,2.7822,2.7821,0,2.7553,2.7552,2.762,2.7638,2.7644,2.7691,2.7706,2.7744,2.7747,2.7799,2.7811,2.7814,2.7859,2.7856,2.7908,2.7905,2.7983,2.7974,2.7975,2.7971,2.8023,2.8018,2.8196,2.8218,2.8066,2.8067,2.8069,0,2.7628,2.7673,2.7696,2.7722,2.7735,2.7777,2.7802,2.7793,2.782,2.7852,2.7886,2.7929,2.7962,2.8036,2.8043,2.8083,2.8072,2.8132,2.8078,2.8079,2.807,2.8066,2.807,2.8142,2.8143,2.8145,2.8146,0,2.7762,2.776,2.7796,2.7833,2.7864,2.7893,2.7919,2.7942,2.7936,2.7968,2.8013,2.804,2.8092,2.8135,2.8173,2.8186,2.8165,2.8164,2.8178,2.8179,2.8177,2.8176,2.8001,2.8159,2.8157,2.8156,2.8156,2.8155,2.7858,2.7896,2.7919,2.796,2.798,2.8006,2.8042,2.8049,2.8087,2.8129,2.8123,2.8174,2.8198,2.8246,2.8263,2.8303,2.8282,2.8302,2.8307,2.8311,2.8316,2.8174,2.8311,2.831,2.831,2.831,2.8309,0,2.7988,2.8002,2.8041,2.8079,2.8112,2.8092,2.812,2.8149,2.8194,2.8219,2.8253,2.8306,2.8348,2.836,2.8401,2.8431,2.8422,2.8441,2.8437,2.844,2.8334,2.8317,2.8447,2.8447,2.8447,2.8447,2.8447,2.8447,2.806,2.8122,2.8124,2.8197,2.821,2.826,2.8278,2.8302,2.8321,2.8381,2.8416,2.8424,2.8443,2.8486,2.8524,2.8526,2.8541,2.8564,2.8562,2.8462,2.8448,2.8434,2.8418,2.8568,2.8568,2.8664,2.8665,2.8666]},{"header":{"parameterUnit":"m.s-1","parameterCategory":1,"la1":30.2991,"la2":30.254,"lo1":-89.0895,"lo2":-89.0444,"dy":0.0017,"dx":0.0017,"nx":28,"ny":28,"refTime":"2023-08-07T03:00:00:Z","depth":0,"parameterNumber":3,"parameterNumberName":"V-component_of_WINDS"},"data":[0,0,0,0,0,0,0,0,0,0,0,0,0,0,0,0,0,0,0,0,0,0,0,0,0,0,0,0,0,0,0,0,0,0,0,0,0,0,0,0,0,0,0,0,0,0,0,0,0,0,0,0,0,0,0,0,0,0,4.6261,4.6262,0,4.6339,4.634,4.6341,4.6319,4.6317,4.6316,4.6314,4.6391,4.6394,4.6398,0,0,0,0,0,0,0,0,0,0,0,0,0,4.6087,4.609,4.6261,4.6262,4.6263,4.6339,4.634,4.6341,4.6319,4.6317,4.6315,4.6313,4.6389,4.6394,4.6398,0,0,0,0,0,0,0,0,0,0,0,0,0,4.6163,4.6091,4.6261,4.6261,4.6262,4.6339,4.634,4.6342,4.6319,4.6317,4.6315,4.6312,4.6388,4.6393,4.6398,4.6479,0,0,4.6415,4.6417,0,0,0,0,0,0,0,0,4.6159,4.617,4.626,4.6261,4.6262,4.6317,4.6307,4.6388,4.632,4.6298,4.6314,4.6311,4.6368,4.6375,4.6394,4.6482,4.6486,4.6415,4.6418,4.6421,4.6422,0,0,0,0,0,0,0,4.6154,4.6166,4.6292,4.6262,4.6263,4.6256,4.6264,4.6322,4.6345,4.6299,4.6298,4.6308,4.6368,4.6389,4.6396,4.6487,4.6415,4.642,4.6423,4.6425,4.664,4.6642,0,0,0,0,0,0,4.6148,4.6162,4.629,4.6294,4.6204,4.6261,4.627,4.6302,4.6344,4.6349,4.631,4.6306,4.6382,4.639,4.6399,4.6492,4.642,4.6425,4.6428,4.6638,4.6641,4.6643,0,0,0,0,0,0,4.6145,4.616,4.6286,4.6228,4.6243,4.6266,4.6302,4.6305,4.6326,4.6352,4.6356,4.6328,4.638,4.6391,4.6458,4.6495,4.6428,4.6433,4.6635,4.6638,4.6642,4.6683,0,0,0,0,0,0,4.614,4.6159,4.6191,4.6229,4.6247,4.6347,4.6305,4.6308,4.6336,4.6332,4.637,4.6374,4.6379,4.6451,4.6464,4.6501,4.6437,4.6631,4.6636,4.6641,4.6678,4.6687,4.6695,0,0,0,0,0,4.6134,4.62,4.6193,4.6208,4.6288,4.6349,4.6359,4.6364,4.6339,4.637,4.6386,4.6373,4.6489,4.6458,4.6472,4.6512,4.6629,4.6635,4.664,4.6674,4.6686,4.6695,0,0,0,0,0,0,4.6165,4.6205,4.6198,4.6278,4.631,4.6345,4.6385,4.6377,4.6416,4.6411,4.6415,4.6423,4.6491,4.6509,4.6473,4.6589,4.6555,4.6564,4.6576,4.6587,4.6595,4.6589,4.6441,0,0,0,0,0,4.6182,4.623,4.6261,4.6329,4.6345,4.6362,4.6389,4.6391,4.6424,4.6437,4.6458,4.6489,4.6532,4.6561,4.6602,4.6681,4.6687,4.6715,4.6723,4.673,4.6737,4.6776,4.6788,4.6662,4.6662,4.6662,0,0,4.6216,4.6243,4.6273,4.6336,4.6361,4.6408,4.6374,4.6426,4.646,4.6444,4.6508,4.6525,4.656,4.6632,4.6665,4.6648,4.6773,4.6738,4.6743,4.6746,4.6783,4.6795,4.6806,4.6666,4.6665,4.6665,0,0,4.6302,4.6329,4.6387,4.6412,4.6451,4.6461,4.6475,4.651,4.6521,4.6585,4.6573,4.6613,4.6689,4.6713,4.6735,4.6827,4.6814,4.684,4.6884,4.6922,4.6932,4.6941,4.697,4.6981,4.6848,4.6848,4.6848,0,4.6339,4.6411,4.6417,4.647,4.6496,4.6484,4.654,4.6565,4.6614,4.6631,4.6613,4.6704,4.6728,4.6803,4.6825,4.6845,4.6858,4.6835,4.6931,4.6939,4.6947,4.6976,4.6987,4.685,4.685,4.685,4.6849,0,4.6453,4.6503,4.6545,4.6593,4.6624,4.6679,4.669,4.6721,4.6719,4.673,4.6794,4.6821,4.6866,4.6884,4.6883,4.6959,4.6947,4.693,4.6895,4.6962,4.6988,4.6999,4.6854,4.6853,4.6852,4.6852,0,0,4.6562,4.6611,4.6626,4.6646,4.6686,4.6724,4.6776,4.6821,4.6845,4.6879,4.6921,4.6984,4.6967,4.6992,4.6993,4.7027,4.7093,4.7004,4.7005,4.7017,4.7174,4.7185,4.7198,4.7086,4.7088,4.709,4.717,0,4.6648,4.6742,4.6747,4.6831,4.6875,4.6863,4.6908,4.6936,4.6948,4.6985,4.6998,4.7041,4.7017,4.7032,4.7065,4.7078,4.7124,4.7073,4.7122,4.7124,4.7111,4.7212,4.7225,4.73,4.7181,4.7183,4.7184,0,4.6763,4.6799,4.6887,4.6918,4.6937,4.6978,4.7017,4.7054,4.7085,4.709,4.7117,4.7113,4.7164,4.7128,4.7196,4.7161,4.7181,4.7191,4.7194,4.7196,4.7156,4.7215,4.7324,4.7334,4.7201,4.72,4.7198,0,4.6828,4.69,4.6961,4.6979,4.7018,4.7046,4.7063,4.7092,4.7117,4.7151,4.7167,4.7206,4.7227,4.7257,4.7262,4.7236,4.7329,4.7295,4.7332,4.7332,4.7351,4.7349,4.7462,4.7368,4.7368,4.7368,4.7368,0,4.6923,4.6977,4.6991,4.7028,4.7086,4.7091,4.7148,4.7163,4.7188,4.7226,4.7219,4.7254,4.726,4.7296,4.73,4.7354,4.7364,4.7368,4.7368,4.7368,4.7367,4.7379,4.7373,4.7371,4.737,4.737,4.7369,0,4.7006,4.7018,4.7083,4.7114,4.7123,4.7164,4.7189,4.7224,4.7234,4.7282,4.7293,4.7309,4.7351,4.736,4.7409,4.7412,4.7475,4.7471,4.7464,4.7463,4.7499,4.7495,4.7622,4.7637,4.7536,4.7537,4.7538,0,4.7065,4.7105,4.714,4.7165,4.7183,4.7225,4.725,4.7256,4.7282,4.7318,4.7347,4.7388,4.7421,4.7488,4.7503,4.7539,4.7535,4.7577,4.754,4.7537,4.7532,4.7528,4.7531,4.7583,4.7584,4.7585,4.7586,0,4.7166,4.7169,4.7207,4.7246,4.7277,4.7308,4.7337,4.7358,4.7367,4.7396,4.7439,4.7465,4.7515,4.7554,4.7591,4.7606,4.7596,4.7597,4.7607,4.7606,4.7599,4.76,4.748,4.7594,4.7593,4.7593,4.7592,4.7592,4.7236,4.727,4.7299,4.7341,4.7363,4.739,4.7423,4.7437,4.7473,4.7515,4.7515,4.7561,4.7587,4.7635,4.7653,4.7687,4.7674,4.7689,4.7693,4.7696,4.7697,4.7596,4.7694,4.7694,4.7694,4.7694,4.7693,0,4.7334,4.7352,4.739,4.7431,4.7462,4.7452,4.7483,4.751,4.7551,4.7577,4.7609,4.7656,4.7694,4.7711,4.7748,4.7771,4.7768,4.778,4.7777,4.778,4.7709,4.7695,4.7783,4.7783,4.7783,4.7783,4.7783,4.7783,4.7389,4.7445,4.7451,4.7517,4.7535,4.758,4.7598,4.7622,4.7642,4.7695,4.7727,4.7738,4.776,4.7797,4.783,4.7834,4.7847,4.7861,4.7863,4.7795,4.7786,4.7777,4.7764,4.7864,4.7865,4.7931,4.7931,4.7932]}]]